GFSFLT1_prec_pwat_024.txt.gz
Precipitable_Water
0.88 0.93 0.98 0.95 0.91 0.96 1.00 1.09 1.12 1.12 1.11 1.09 1.10 1.04 1.02 1.01 0.91 0.79 0.74 0.70 0.67 0.63 0.61 0.63 0.68 0.69 0.69 0.66 0.59 0.50 0.43 0.39
0.83 0.92 0.97 0.96 1.01 1.02 1.06 1.09 1.13 1.13 1.12 1.05 1.00 0.93 0.96 0.94 0.84 0.76 0.71 0.64 0.63 0.64 0.66 0.70 0.73 0.71 0.66 0.55 0.50 0.43 0.37 0.40
0.77 0.82 0.88 0.91 0.96 1.01 1.09 1.11 1.15 1.14 1.11 1.10 1.05 1.02 1.00 0.91 0.77 0.71 0.68 0.64 0.66 0.70 0.72 0.71 0.69 0.66 0.57 0.53 0.45 0.38 0.38 0.41
0.73 0.78 0.84 0.92 0.96 1.01 1.16 1.17 1.17 1.15 1.15 1.15 1.10 1.05 0.94 0.78 0.72 0.69 0.67 0.70 0.71 0.71 0.68 0.65 0.63 0.58 0.46 0.40 0.42 0.41 0.36 0.41
0.76 0.81 0.87 0.91 1.00 1.19 1.18 1.19 1.18 1.20 1.20 1.08 1.03 0.86 0.73 0.72 0.71 0.71 0.70 0.71 0.71 0.70 0.68 0.65 0.61 0.45 0.38 0.38 0.41 0.41 0.41 0.38
0.74 0.80 0.89 1.05 1.13 1.14 1.18 1.18 1.17 1.22 1.10 1.11 0.95 0.80 0.79 0.79 0.76 0.71 0.70 0.70 0.70 0.67 0.64 0.62 0.47 0.40 0.40 0.41 0.41 0.42 0.44 0.43
0.83 0.94 1.04 1.11 1.18 1.23 1.18 1.13 1.14 1.15 1.14 1.03 0.90 0.82 0.79 0.76 0.73 0.71 0.70 0.69 0.67 0.64 0.62 0.48 0.42 0.41 0.40 0.43 0.45 0.44 0.43 0.43
0.86 0.93 1.01 1.13 1.14 1.10 1.00 0.98 0.99 1.06 1.03 0.89 0.86 0.85 0.82 0.79 0.75 0.72 0.70 0.66 0.65 0.60 0.54 0.46 0.42 0.46 0.46 0.49 0.46 0.44 0.46 0.44
0.85 0.92 1.01 1.02 1.02 0.99 0.97 0.92 0.89 0.86 0.87 0.85 0.85 0.83 0.80 0.77 0.75 0.73 0.68 0.65 0.62 0.55 0.60 0.45 0.45 0.41 0.43 0.46 0.44 0.46 0.45 0.43
0.79 0.86 0.93 0.94 0.92 0.93 0.91 0.85 0.83 0.80 0.81 0.81 0.80 0.79 0.77 0.74 0.74 0.69 0.65 0.63 0.63 0.61 0.46 0.45 0.45 0.40 0.40 0.41 0.43 0.45 0.45 0.41
0.75 0.81 0.80 0.79 0.79 0.80 0.79 0.80 0.79 0.81 0.82 0.79 0.74 0.73 0.73 0.72 0.69 0.67 0.67 0.65 0.59 0.49 0.49 0.45 0.41 0.40 0.43 0.44 0.45 0.45 0.41 0.39
0.66 0.69 0.70 0.68 0.71 0.72 0.71 0.70 0.71 0.72 0.73 0.74 0.74 0.72 0.71 0.71 0.73 0.68 0.64 0.61 0.61 0.54 0.47 0.48 0.45 0.45 0.43 0.41 0.41 0.39 0.38 0.40
0.61 0.63 0.65 0.67 0.67 0.67 0.64 0.66 0.67 0.69 0.71 0.72 0.70 0.69 0.69 0.69 0.66 0.62 0.62 0.60 0.59 0.53 0.50 0.48 0.46 0.42 0.41 0.39 0.39 0.41 0.39 0.39
0.63 0.67 0.68 0.68 0.68 0.69 0.68 0.66 0.71 0.78 0.76 0.74 0.70 0.66 0.65 0.62 0.60 0.60 0.60 0.58 0.56 0.53 0.51 0.49 0.46 0.41 0.40 0.43 0.43 0.41 0.40 0.38
0.64 0.68 0.68 0.69 0.72 0.76 0.75 0.75 0.80 0.80 0.76 0.70 0.66 0.65 0.63 0.61 0.60 0.58 0.57 0.56 0.55 0.54 0.50 0.48 0.42 0.44 0.45 0.42 0.41 0.41 0.40 0.36
0.60 0.63 0.67 0.68 0.73 0.75 0.77 0.81 0.81 0.78 0.70 0.66 0.65 0.66 0.63 0.60 0.59 0.57 0.57 0.56 0.55 0.51 0.49 0.43 0.46 0.44 0.42 0.43 0.40 0.39 0.37 0.33
0.55 0.59 0.62 0.65 0.70 0.73 0.77 0.76 0.73 0.72 0.67 0.66 0.67 0.65 0.61 0.59 0.57 0.56 0.55 0.54 0.54 0.51 0.45 0.45 0.42 0.42 0.42 0.41 0.39 0.36 0.35 0.32
0.47 0.47 0.48 0.54 0.63 0.70 0.68 0.70 0.72 0.70 0.69 0.68 0.65 0.62 0.59 0.57 0.56 0.55 0.55 0.55 0.53 0.48 0.44 0.42 0.41 0.39 0.37 0.37 0.36 0.34 0.32 0.30
0.47 0.50 0.52 0.54 0.58 0.63 0.68 0.71 0.72 0.71 0.67 0.63 0.62 0.60 0.57 0.56 0.57 0.56 0.57 0.54 0.51 0.44 0.41 0.39 0.34 0.34 0.34 0.34 0.33 0.33 0.30 0.30

GFSFLT1_prec_pwat_030.txt.gz
Precipitable_Water
0.78 0.77 0.82 0.89 0.99 1.08 1.11 1.12 1.10 1.12 1.12 1.17 1.18 1.14 1.15 1.07 1.00 1.00 1.00 0.90 0.84 0.79 0.70 0.64 0.63 0.62 0.62 0.60 0.55 0.55 0.49 0.41
0.87 0.83 0.80 0.88 0.97 0.99 1.02 1.06 1.07 1.09 1.07 1.06 1.07 1.03 1.04 1.01 1.01 0.99 0.99 0.89 0.81 0.72 0.65 0.63 0.63 0.61 0.61 0.62 0.57 0.52 0.46 0.44
0.83 0.85 0.86 0.86 0.84 0.91 0.97 1.04 1.08 1.12 1.12 1.10 1.10 1.08 1.06 1.03 1.01 0.96 0.93 0.87 0.76 0.68 0.65 0.64 0.62 0.61 0.61 0.61 0.57 0.52 0.49 0.51
0.75 0.80 0.81 0.85 0.88 0.90 0.96 1.03 1.10 1.17 1.18 1.14 1.08 1.09 1.07 1.03 1.01 0.91 0.89 0.85 0.76 0.69 0.67 0.63 0.62 0.62 0.60 0.60 0.61 0.59 0.53 0.49
0.76 0.82 0.86 0.87 0.95 1.05 1.05 1.07 1.09 1.16 1.18 1.13 1.03 1.01 1.01 1.06 1.02 0.91 0.86 0.83 0.74 0.68 0.65 0.62 0.65 0.65 0.61 0.65 0.69 0.63 0.57 0.44
0.73 0.80 0.91 0.97 0.99 1.03 1.12 1.21 1.22 1.22 1.18 1.16 1.07 1.07 1.14 1.08 1.01 0.89 0.83 0.80 0.72 0.68 0.68 0.67 0.66 0.68 0.74 0.80 0.75 0.60 0.49 0.48
0.73 0.82 0.91 0.96 1.03 1.06 1.18 1.29 1.18 1.23 1.20 1.17 1.09 1.04 1.06 1.01 0.91 0.84 0.80 0.77 0.72 0.72 0.71 0.68 0.69 0.82 0.83 0.78 0.62 0.51 0.51 0.47
0.72 0.76 0.81 0.90 0.96 1.04 1.13 1.26 1.23 1.23 1.20 1.18 1.11 1.06 1.06 0.99 0.92 0.84 0.78 0.76 0.76 0.75 0.75 0.75 0.77 0.73 0.77 0.65 0.52 0.52 0.47 0.46
0.64 0.73 0.78 0.86 0.94 1.00 1.11 1.23 1.17 1.15 1.16 1.12 1.07 1.04 1.07 0.98 0.92 0.88 0.82 0.78 0.77 0.78 0.75 0.72 0.75 0.80 0.64 0.52 0.51 0.48 0.51 0.52
0.58 0.69 0.76 0.84 0.86 0.95 1.04 1.15 1.11 1.03 1.06 1.02 0.98 1.06 0.99 0.96 0.97 0.87 0.81 0.79 0.76 0.71 0.69 0.74 0.72 0.61 0.55 0.51 0.48 0.49 0.54 0.50
0.57 0.65 0.73 0.79 0.85 0.92 1.03 1.03 0.93 0.97 0.89 0.89 0.92 0.93 0.92 0.92 0.86 0.85 0.83 0.81 0.74 0.68 0.71 0.66 0.62 0.58 0.53 0.50 0.53 0.55 0.49 0.45
0.55 0.63 0.71 0.75 0.78 0.78 0.86 0.82 0.79 0.76 0.82 0.87 0.91 0.97 0.97 0.93 0.92 0.88 0.81 0.77 0.71 0.68 0.62 0.60 0.55 0.54 0.55 0.57 0.53 0.46 0.43 0.42
0.52 0.57 0.60 0.62 0.69 0.77 0.81 0.88 0.85 0.86 0.94 0.97 1.00 0.99 0.93 0.89 0.86 0.81 0.75 0.70 0.67 0.62 0.61 0.57 0.56 0.55 0.57 0.55 0.46 0.46 0.43 0.39
0.51 0.54 0.58 0.63 0.74 0.84 0.96 0.97 1.02 0.96 0.97 0.96 0.94 0.91 0.87 0.83 0.78 0.77 0.73 0.66 0.62 0.62 0.60 0.58 0.57 0.56 0.60 0.53 0.50 0.47 0.42 0.39
0.49 0.53 0.58 0.69 0.77 0.91 0.98 0.95 0.95 0.90 0.89 0.89 0.87 0.85 0.79 0.77 0.76 0.72 0.68 0.64 0.62 0.62 0.61 0.61 0.59 0.61 0.62 0.53 0.48 0.44 0.40 0.38
0.48 0.53 0.62 0.72 0.81 0.86 0.87 0.86 0.83 0.83 0.81 0.82 0.81 0.80 0.75 0.74 0.74 0.72 0.66 0.64 0.64 0.63 0.62 0.60 0.59 0.66 0.61 0.52 0.48 0.42 0.38 0.35
0.52 0.57 0.62 0.68 0.73 0.77 0.76 0.73 0.76 0.81 0.81 0.78 0.78 0.74 0.73 0.75 0.73 0.69 0.65 0.64 0.64 0.63 0.62 0.60 0.64 0.66 0.58 0.51 0.46 0.39 0.36 0.30
0.50 0.53 0.56 0.57 0.58 0.59 0.59 0.63 0.68 0.69 0.70 0.73 0.72 0.74 0.75 0.76 0.72 0.67 0.64 0.64 0.65 0.68 0.66 0.65 0.63 0.60 0.53 0.47 0.40 0.35 0.29 0.27
0.48 0.50 0.52 0.52 0.54 0.56 0.58 0.58 0.57 0.59 0.62 0.67 0.70 0.72 0.73 0.72 0.67 0.64 0.67 0.71 0.71 0.68 0.66 0.62 0.58 0.56 0.47 0.38 0.32 0.29 0.27 0.26

GFSFLT1_prec_pwat_033.txt.gz
Precipitable_Water
0.78 0.79 0.84 0.91 0.98 1.04 1.07 1.11 1.12 1.08 1.00 1.03 1.10 1.11 1.13 1.21 1.21 1.12 1.09 1.01 0.92 0.86 0.81 0.75 0.66 0.61 0.61 0.60 0.59 0.57 0.52 0.50
0.81 0.84 0.84 0.87 0.96 1.03 1.08 1.09 1.10 1.08 1.01 1.00 1.06 1.06 1.14 1.16 1.13 1.06 1.02 0.98 0.92 0.84 0.77 0.69 0.65 0.63 0.60 0.61 0.58 0.53 0.55 0.58
0.78 0.81 0.82 0.85 0.87 0.93 1.04 1.09 1.09 1.10 1.07 1.05 1.10 1.13 1.15 1.13 1.07 1.07 1.04 0.98 0.92 0.84 0.75 0.67 0.66 0.63 0.61 0.61 0.58 0.61 0.65 0.68
0.74 0.76 0.75 0.76 0.79 0.85 0.95 1.06 1.10 1.12 1.13 1.13 1.14 1.15 1.16 1.09 1.05 1.07 1.08 1.04 0.94 0.86 0.76 0.68 0.65 0.63 0.58 0.59 0.68 0.73 0.68 0.70
0.76 0.76 0.77 0.77 0.81 0.95 0.99 1.04 1.09 1.15 1.19 1.17 1.09 1.04 0.99 1.06 1.12 1.14 1.09 1.04 0.97 0.88 0.80 0.68 0.64 0.63 0.60 0.68 0.77 0.75 0.73 0.62
0.70 0.79 0.86 0.91 0.97 1.00 1.06 1.10 1.14 1.21 1.28 1.27 1.20 1.11 1.08 1.10 1.12 1.10 1.03 0.97 0.93 0.87 0.80 0.70 0.67 0.68 0.76 0.82 0.80 0.70 0.74 0.57
0.74 0.83 0.93 0.96 1.06 1.08 1.12 1.15 1.18 1.27 1.31 1.25 1.20 1.14 1.08 1.02 0.99 0.98 0.93 0.91 0.87 0.84 0.79 0.73 0.74 0.80 0.81 0.78 0.75 0.73 0.54 0.52
0.73 0.76 0.81 0.92 1.00 1.08 1.15 1.17 1.21 1.23 1.19 1.25 1.23 1.17 1.09 1.02 0.97 0.96 0.94 0.90 0.87 0.84 0.80 0.78 0.80 0.80 0.77 0.76 0.68 0.58 0.55 0.52
0.65 0.67 0.75 0.83 0.92 1.02 1.11 1.15 1.16 1.09 1.15 1.19 1.16 1.10 1.05 1.01 0.99 1.01 0.95 0.93 0.88 0.83 0.79 0.82 0.78 0.76 0.76 0.67 0.68 0.57 0.55 0.57
0.55 0.63 0.72 0.78 0.87 0.96 1.01 1.09 1.15 1.20 1.21 1.10 1.07 1.09 1.04 0.98 1.03 1.04 0.98 0.93 0.86 0.83 0.83 0.76 0.77 0.69 0.66 0.70 0.54 0.56 0.62 0.58
0.53 0.57 0.65 0.74 0.83 0.91 0.99 1.05 1.05 1.11 1.05 1.01 0.95 0.97 0.98 1.03 1.06 1.00 0.96 0.96 0.86 0.79 0.76 0.74 0.71 0.63 0.60 0.57 0.58 0.64 0.58 0.52
0.50 0.55 0.64 0.73 0.81 0.85 0.89 0.91 0.91 0.89 0.92 0.96 0.98 1.00 1.04 1.11 1.09 1.05 0.99 0.95 0.85 0.76 0.72 0.73 0.64 0.66 0.62 0.57 0.60 0.61 0.54 0.53
0.52 0.56 0.61 0.64 0.67 0.74 0.75 0.77 0.85 0.95 1.01 1.04 1.05 1.08 1.09 1.08 1.05 1.01 0.99 0.88 0.76 0.73 0.72 0.65 0.62 0.58 0.58 0.59 0.59 0.60 0.53 0.50
0.49 0.52 0.56 0.60 0.65 0.71 0.75 0.84 0.95 1.08 1.12 1.12 1.04 1.00 1.02 1.03 1.00 1.00 0.92 0.80 0.76 0.71 0.67 0.61 0.60 0.62 0.60 0.61 0.66 0.59 0.53 0.50
0.47 0.53 0.59 0.66 0.72 0.81 0.90 0.94 1.00 1.01 0.99 0.94 0.89 0.90 0.94 0.95 0.93 0.87 0.81 0.77 0.72 0.72 0.65 0.60 0.65 0.62 0.60 0.65 0.70 0.58 0.53 0.49
0.48 0.52 0.59 0.66 0.71 0.79 0.87 0.89 0.92 0.92 0.88 0.85 0.84 0.85 0.86 0.83 0.82 0.77 0.77 0.74 0.69 0.65 0.64 0.61 0.64 0.62 0.69 0.71 0.65 0.56 0.52 0.48
0.51 0.56 0.60 0.63 0.69 0.73 0.78 0.78 0.75 0.73 0.69 0.70 0.73 0.77 0.76 0.74 0.73 0.74 0.72 0.68 0.69 0.66 0.63 0.63 0.64 0.68 0.70 0.68 0.63 0.56 0.49 0.42
0.53 0.55 0.56 0.58 0.60 0.62 0.61 0.62 0.62 0.60 0.60 0.59 0.62 0.65 0.69 0.71 0.71 0.71 0.68 0.67 0.71 0.63 0.68 0.69 0.66 0.69 0.68 0.63 0.60 0.51 0.42 0.34
0.50 0.52 0.53 0.55 0.57 0.57 0.58 0.57 0.56 0.54 0.54 0.58 0.63 0.65 0.66 0.68 0.68 0.68 0.70 0.72 0.71 0.68 0.69 0.69 0.67 0.65 0.64 0.62 0.49 0.39 0.31 0.28

GFSFLT1_prec_pwat_036.txt.gz
Precipitable_Water
0.83 0.87 0.87 0.91 0.96 0.98 0.99 1.04 1.10 1.14 1.08 0.97 0.96 1.06 1.20 1.25 1.29 1.28 1.24 1.12 1.02 0.96 0.91 0.87 0.81 0.72 0.62 0.60 0.59 0.61 0.56 0.60
0.78 0.81 0.87 0.92 0.97 1.02 1.05 1.07 1.13 1.18 1.04 0.90 0.89 0.97 1.08 1.15 1.23 1.23 1.16 1.08 1.04 0.96 0.87 0.83 0.76 0.67 0.63 0.63 0.61 0.58 0.65 0.69
0.76 0.82 0.83 0.86 0.92 1.00 1.07 1.12 1.20 1.19 1.09 1.00 1.07 1.12 1.15 1.18 1.19 1.17 1.14 1.07 1.05 0.99 0.93 0.82 0.76 0.68 0.67 0.66 0.61 0.62 0.67 0.72
0.72 0.77 0.84 0.85 0.84 0.91 0.99 1.08 1.15 1.19 1.16 1.10 1.12 1.19 1.19 1.15 1.14 1.14 1.13 1.14 1.12 1.07 1.03 0.95 0.83 0.74 0.66 0.65 0.65 0.72 0.71 0.74
0.75 0.79 0.77 0.79 0.81 0.91 0.94 1.01 1.10 1.18 1.20 1.13 1.08 1.03 1.02 1.12 1.15 1.18 1.19 1.20 1.17 1.11 1.03 0.97 0.86 0.76 0.69 0.67 0.76 0.82 0.79 0.70
0.66 0.70 0.77 0.84 0.87 0.89 0.94 0.99 1.07 1.15 1.20 1.19 1.15 1.12 1.17 1.20 1.15 1.09 1.10 1.15 1.16 1.08 0.99 0.93 0.87 0.83 0.74 0.77 0.83 0.83 0.79 0.66
0.67 0.77 0.87 0.90 0.95 0.97 1.00 1.01 1.05 1.17 1.26 1.26 1.27 1.20 1.22 1.18 1.14 1.08 1.05 1.05 1.08 1.05 1.00 0.95 0.89 0.80 0.80 0.85 0.85 0.83 0.70 0.65
0.70 0.77 0.81 0.89 0.96 1.04 1.09 1.12 1.14 1.25 1.30 1.24 1.24 1.25 1.27 1.20 1.15 1.07 1.00 0.97 1.01 1.05 0.97 0.92 0.88 0.85 0.85 0.86 0.85 0.71 0.71 0.63
0.72 0.76 0.81 0.87 0.95 1.06 1.12 1.14 1.16 1.30 1.16 1.23 1.21 1.25 1.22 1.15 1.08 1.02 0.99 1.01 1.06 1.04 0.97 0.93 0.86 0.83 0.86 0.83 0.70 0.71 0.66 0.58
0.64 0.73 0.78 0.84 0.90 1.01 1.08 1.13 1.17 1.21 1.23 1.15 1.03 1.09 1.08 1.03 1.04 0.99 1.03 1.05 1.07 1.01 0.97 0.90 0.89 0.83 0.78 0.75 0.70 0.67 0.64 0.66
0.60 0.64 0.70 0.80 0.86 0.96 1.05 1.09 1.10 1.17 1.09 1.12 1.07 1.03 1.02 1.04 1.06 1.04 1.09 1.11 1.05 0.97 0.96 0.91 0.83 0.80 0.74 0.71 0.67 0.70 0.66 0.66
0.55 0.57 0.64 0.71 0.80 0.88 0.95 0.99 1.03 1.08 1.04 1.05 1.00 1.04 1.08 1.12 1.12 1.11 1.11 1.11 1.06 0.99 0.97 0.90 0.77 0.74 0.72 0.65 0.68 0.64 0.63 0.67
0.57 0.64 0.68 0.68 0.72 0.81 0.87 0.91 0.94 1.01 1.04 0.99 1.04 1.14 1.18 1.13 1.05 1.04 1.10 1.06 1.03 0.96 0.91 0.84 0.75 0.73 0.66 0.64 0.62 0.62 0.67 0.67
0.55 0.58 0.63 0.67 0.70 0.72 0.79 0.87 0.88 0.95 1.02 1.06 1.11 1.11 1.12 1.03 0.97 1.00 1.01 1.00 0.97 0.91 0.83 0.73 0.70 0.70 0.68 0.62 0.64 0.70 0.71 0.67
0.49 0.54 0.60 0.65 0.69 0.73 0.77 0.81 0.90 0.98 1.03 1.06 1.03 1.00 0.98 0.97 0.97 0.96 0.99 0.99 0.93 0.85 0.77 0.75 0.68 0.68 0.65 0.64 0.69 0.71 0.71 0.64
0.49 0.56 0.63 0.69 0.73 0.79 0.85 0.91 0.96 0.97 0.94 0.93 0.91 0.93 0.93 0.93 0.93 0.91 0.89 0.87 0.83 0.77 0.73 0.72 0.69 0.69 0.68 0.69 0.70 0.70 0.68 0.63
0.54 0.58 0.64 0.70 0.76 0.80 0.86 0.86 0.87 0.89 0.83 0.81 0.78 0.73 0.73 0.75 0.73 0.73 0.74 0.73 0.73 0.67 0.72 0.66 0.72 0.71 0.69 0.68 0.70 0.66 0.65 0.59
0.57 0.61 0.64 0.67 0.70 0.73 0.69 0.70 0.71 0.67 0.65 0.63 0.62 0.61 0.59 0.60 0.62 0.64 0.64 0.65 0.67 0.65 0.69 0.71 0.70 0.68 0.67 0.69 0.68 0.65 0.59 0.53
0.55 0.59 0.60 0.61 0.63 0.63 0.63 0.63 0.60 0.59 0.57 0.56 0.57 0.58 0.60 0.62 0.63 0.63 0.65 0.66 0.66 0.67 0.67 0.69 0.67 0.68 0.69 0.67 0.63 0.56 0.44 0.37